Weather in Mordy

Poland     52°12′38″N   22°30′59″E
temp.,
°C
wind,
m/s
gust,
m/s
humid.,
%
clouds,
%
prec.,
mm/h
press.,
hPa
HPBL,
m
16 october, sat
sat1623:00+12sw71370100 0.1 1013838
02:00+9wnw5118589 0.8 1014701
05:00+6w4109567 0.0 1015399
08:00+8w4884100 0.1 1017831
11:00+9w6875100 0.1 1018900
14:00+9w5875100 0.1 1018992
17:00+9w4867100 0.0 1019762
20:00+9w4860100 0.0 1019352
17 october, sun
sun1723:00+9w4757100 0.0 1020331
02:00+5w4107511 0.0 1020217
05:00+7w4758100 0.0 1020340
08:00+8wsw3755100 0.0 1019300
11:00+10wsw4753100 0.0 1020768
14:00+11w6848100 0.0 10191746
17:00+10w4754100 0.0 1018354
20:00+7wsw3768100 0.0 1019134
18 october, mon
mon1823:00+6wsw3773100 0.0 1019130
02:00+5wsw3782100 0.0 1019140
05:00+6w4982100 0.0 1019233
08:00+6w498685 0.0 1020281
11:00+11wnw57685 0.0 1020754
14:00+12wnw6756100 0.1 10201553
17:00+9w5882100 0.1 1020514
20:00+8wnw3896100 2.0 1020422
19 october, tue
tue1923:00+8nnw5107847 0.5 1022568
02:00+3nnw378355 0.5 1025138
05:00+2nnw338552 0.0 102738
08:00+3nw2281100 0.0 102856
11:00+7wnw226299 0.0 1029401
14:00+9w234898 0.0 10281075
17:00+7sw115727 0.0 102710
20:00+4sse336398 0.0 102733
20 october, wed
wed2023:00+4sse4868100 0.0 1026130
02:00+4sse51164100 0.0 1024211
05:00+4sse5136399 0.0 1022248
08:00+7s51388100 0.0 1018304
11:00+9ssw61377100 0.1 1016389
14:00+12ssw71367100 0.1 1013482
17:00+11ssw6147189 0.0 1012369
20:00+11ssw71670100 0.0 1010393